Theta_e
342 342 341 338 338 337 338 334 332 333 343 346 348 349 348 344 344 345 345 346 346 346 345 345 343 342 340 338 337 343 344 345 345 345 346 346 346 345 344 346 345 346 345 346
330 335 335 331 329 329 329 329 333 336 346 346 349 347 348 345 344 343 344 344 345 345 345 345 345 343 341 340 339 340 343 344 344 344 345 345 346 346 344 342 346 346 347 346
333 336 328 331 330 325 327 331 334 336 346 346 347 347 351 346 344 343 342 343 343 344 344 343 343 344 342 340 340 340 343 343 344 344 344 344 345 346 346 343 341 343 345 346
334 334 331 329 325 323 326 325 328 339 344 337 345 334 343 347 346 343 342 341 341 342 342 342 342 342 342 337 338 340 341 342 342 344 344 343 344 346 346 345 339 340 344 346
330 326 324 325 325 323 325 328 338 344 339 342 345 342 341 344 350 348 344 343 341 341 341 341 339 340 340 339 337 337 339 340 341 342 343 343 344 344 346 347 347 340 340 346
328 323 323 324 323 322 323 326 328 331 334 334 328 346 338 340 338 343 345 344 343 342 341 340 339 337 336 338 337 336 338 340 340 340 339 339 341 343 343 344 347 343 336 341
324 325 324 321 324 324 325 327 330 330 332 330 333 345 342 337 337 340 344 344 344 343 342 342 342 340 338 337 336 336 334 334 336 338 340 340 340 340 340 342 345 346 340 339
325 331 329 327 325 326 326 328 330 332 331 336 333 336 337 343 344 337 338 343 343 344 343 343 342 342 341 339 337 336 335 334 334 335 336 338 337 337 338 341 345 346 343 342
328 330 328 327 326 325 327 330 324 325 325 335 335 337 339 346 344 349 347 347 348 348 345 344 342 342 342 341 341 339 336 338 339 338 338 340 341 341 342 343 346 347 346 343
328 333 328 328 326 324 326 323 328 327 333 338 337 340 340 350 348 347 346 345 346 347 344 344 344 342 341 341 340 341 342 341 340 339 340 341 341 342 342 343 345 346 345 344
326 329 332 328 328 328 328 328 324 326 328 336 338 338 337 349 347 347 347 346 348 347 343 344 344 343 341 340 340 341 341 341 341 341 341 341 342 342 343 344 345 345 345 344
325 329 331 328 324 321 325 326 327 331 331 328 333 336 332 335 339 345 348 347 347 345 342 342 344 343 342 341 341 342 342 342 342 342 342 342 343 344 344 344 345 345 345 345
327 328 330 330 328 327 330 326 322 323 326 332 334 335 333 338 342 340 348 347 347 345 343 343 343 343 342 342 342 342 341 337 337 342 342 344 343 343 344 345 345 345 345 345
324 325 329 330 330 329 330 329 325 329 331 329 330 331 334 331 339 340 340 347 344 344 343 343 344 343 343 343 343 343 338 342 342 342 342 344 346 345 344 344 344 344 345 345
327 330 326 327 325 325 328 329 329 330 330 331 332 330 331 337 344 342 339 340 347 346 346 344 344 343 343 343 343 343 343 341 341 342 344 345 342 339 346 340 337 339 345 345
323 332 327 329 326 326 327 328 328 329 327 327 327 329 335 344 345 346 342 344 347 347 345 344 343 341 341 341 341 340 341 341 342 340 343 345 348 347 342 343 342 343 342 346
329 328 330 332 326 327 329 329 329 329 327 330 333 335 345 347 347 347 344 345 348 346 344 342 339 340 343 345 345 344 340 338 339 340 345 345 344 344 344 346 346 347 350 350
328 329 328 331 328 330 329 327 328 328 334 332 336 343 346 345 343 344 346 347 342 339 338 337 335 335 339 342 343 342 341 340 339 342 340 339 338 340 344 347 347 345 347 348
324 327 329 330 330 329 329 334 336 338 339 336 339 344 341 338 338 339 341 341 339 337 335 332 331 330 332 333 338 334 333 334 336 336 336 335 336 337 337 339 345 346 345 342
321 324 330 327 330 329 331 331 334 337 336 337 339 339 338 333 338 337 334 336 337 333 329 328 327 328 328 329 330 329 328 328 327 328 331 335 336 335 335 340 343 345 344 340
329 326 330 330 330 330 330 328 333 336 333 337 336 337 335 333 334 333 331 331 329 328 327 327 327 327 327 327 326 325 325 324 324 323 323 324 325 331 336 335 335 344 344 344
334 334 331 328 331 332 326 330 336 335 328 336 335 334 333 331 329 331 328 328 327 327 327 327 328 327 326 325 324 323 323 322 322 322 322 322 322 323 323 328 336 342 343 341
333 331 333 332 333 330 327 331 330 327 331 334 335 333 332 331 330 329 327 327 327 327 327 327 327 326 324 323 323 322 322 322 323 323 323 322 322 322 322 323 324 331 336 335
329 326 333 331 333 329 328 329 328 328 329 330 333 332 332 331 329 327 327 327 327 327 327 326 325 324 323 323 323 323 321 320 318 317 317 317 317 316 316 317 322 323 325 331
330 328 333 334 332 330 331 329 329 329 329 329 330 330 329 328 328 327 327 327 327 327 327 325 323 323 323 323 323 319 317 318 318 318 319 319 319 319 319 319 317 318 320 324
327 331 332 333 334 334 333 329 328 329 330 330 330 329 328 328 328 327 327 326 327 327 325 323 323 324 323 321 317 317 318 319 319 320 320 320 320 319 319 320 321 320 317 316
Wind_Speed
2 4 9 13 9 12 10 11 14 12 1 2 3 6 14 17 14 16 18 21 25 29 27 26 30 29 29 32 32 28 24 21 19 20 19 19 18 15 17 14 11 10 10 10
1 10 14 7 8 9 9 10 7 6 2 1 2 3 12 19 19 21 22 24 26 25 26 28 30 33 33 33 35 34 29 25 23 23 21 19 17 15 15 17 16 15 13 13
7 11 2 8 11 4 6 6 3 4 2 2 6 2 4 9 9 17 19 21 24 29 30 30 32 34 35 37 36 34 31 27 25 23 22 21 20 20 18 19 20 18 17 16
9 10 10 9 10 7 8 4 3 3 2 3 6 4 1 3 12 14 20 22 24 25 26 28 30 33 37 38 33 33 32 30 28 26 25 24 23 23 21 18 18 19 18 18
4 4 5 7 7 4 3 5 4 4 2 2 3 4 4 3 7 15 20 23 25 27 30 33 36 39 39 38 38 34 33 32 31 29 27 26 26 25 22 21 20 19 20 19
12 2 4 4 2 3 9 5 5 4 1 3 4 3 1 3 5 2 18 24 26 28 30 33 33 34 38 41 41 39 36 34 32 32 30 29 29 27 25 24 21 20 19 17
5 2 2 4 3 4 4 3 2 1 1 2 3 3 4 10 5 4 6 17 22 24 25 28 32 35 38 38 40 43 42 38 35 33 31 31 31 29 28 26 24 23 20 19
3 2 3 2 2 2 2 2 2 2 3 2 3 2 4 7 6 1 3 1 4 9 15 22 27 32 35 40 39 40 41 38 37 36 34 32 32 33 31 26 26 22 21 19
2 0 1 3 2 3 4 1 2 5 0 2 3 1 2 3 5 4 6 7 7 4 3 6 12 21 27 32 39 39 38 36 34 34 33 32 29 28 25 24 23 23 22 19
2 2 1 2 2 9 1 6 1 1 0 1 0 2 2 3 5 4 8 10 9 9 10 8 6 3 9 18 24 28 37 39 35 33 31 31 28 26 25 24 23 22 21 20
3 1 1 2 6 5 1 2 5 4 2 1 4 3 3 7 3 2 3 5 6 6 11 13 15 9 2 11 14 15 20 26 32 32 30 28 27 25 24 23 23 21 21 22
2 1 3 2 1 3 2 3 1 2 4 1 2 2 2 2 3 1 1 1 1 4 13 16 18 12 6 2 5 8 10 13 19 20 21 24 23 23 23 22 22 23 22 23
6 1 2 3 3 3 3 3 4 3 1 3 3 1 2 3 3 1 1 4 3 7 11 15 13 11 7 4 1 2 1 4 11 18 22 20 18 18 20 22 24 25 24 25
5 3 2 2 2 1 1 1 2 2 2 3 4 3 4 3 4 5 3 2 4 6 9 11 10 8 4 3 3 5 9 15 12 8 12 16 17 18 19 22 24 26 26 27
1 3 3 2 2 2 2 4 5 6 6 6 5 7 3 3 7 8 7 3 5 5 6 7 7 6 6 7 8 8 10 11 10 11 12 14 14 17 19 19 22 28 29 29
1 3 3 2 4 5 6 9 9 10 6 10 8 11 2 3 3 3 2 8 8 5 6 7 8 8 6 5 6 7 6 5 7 7 9 13 17 19 23 26 24 25 28 31
3 5 4 9 2 4 8 13 12 6 7 7 8 4 4 3 3 4 6 9 12 11 11 11 9 8 8 7 4 3 2 4 5 3 6 10 15 19 21 22 23 24 26 28
5 4 2 7 2 11 6 4 6 6 6 9 4 6 6 6 5 6 6 11 13 14 10 8 8 7 6 6 5 4 5 3 3 3 4 7 9 10 13 17 20 24 27 32
6 5 3 4 7 7 8 5 8 7 3 7 10 10 11 9 7 5 9 11 11 10 9 8 7 6 5 5 6 9 10 9 6 6 9 12 13 13 12 12 13 15 19 23
6 3 5 4 4 5 5 10 8 6 5 15 14 16 17 12 5 4 9 9 8 5 4 5 5 5 5 7 9 9 10 11 11 12 13 13 14 14 14 14 15 15 18 21
5 3 8 7 6 6 9 4 13 8 2 25 24 22 20 7 2 9 13 10 7 3 1 3 3 3 4 7 8 10 12 15 17 17 16 15 15 14 15 18 19 19 21 22
10 8 5 3 7 8 10 10 10 7 3 23 26 24 21 9 5 12 12 9 6 4 3 3 2 2 5 8 11 14 16 17 17 19 21 21 19 17 16 16 18 20 19 21
7 8 5 9 5 0 13 6 6 4 4 16 27 27 20 13 12 15 12 8 6 5 5 5 4 5 8 11 15 17 18 20 22 23 23 24 24 23 19 18 18 18 21 22
5 3 5 5 7 9 12 17 22 15 16 18 22 27 23 19 18 16 13 10 9 8 8 6 6 8 12 16 19 21 22 22 22 21 21 21 23 23 23 22 18 19 19 19
1 10 7 4 4 5 10 13 13 16 13 18 21 22 20 20 19 16 14 13 13 11 9 8 10 12 16 18 20 19 19 20 18 17 16 18 21 23 22 21 20 20 21 19
6 4 7 7 6 4 3 7 13 14 15 21 24 21 20 19 17 15 14 13 14 12 10 10 11 14 17 19 16 16 17 18 19 18 18 21 23 21 19 18 18 19 19 21
Wind_Direction
57 289 278 296 276 277 291 294 291 285 15 223 257 155 175 177 178 175 182 185 190 194 193 195 199 205 210 217 221 219 218 221 223 226 227 229 230 235 237 235 231 234 236 233
274 277 291 274 280 272 263 272 270 280 31 238 9 295 168 180 194 189 188 190 197 197 200 204 207 211 217 220 221 224 223 221 221 223 228 236 244 248 249 242 239 238 243 244
248 267 277 291 300 258 242 235 223 286 16 72 310 137 149 197 211 204 207 205 201 204 203 208 212 215 218 223 225 225 223 222 221 222 228 234 244 250 250 247 246 243 244 250
253 275 260 267 273 224 311 238 272 215 251 341 350 349 87 177 206 215 214 212 211 211 214 215 218 220 220 223 222 223 225 227 228 228 231 237 245 253 257 260 260 255 251 251
225 238 224 266 268 196 322 34 66 105 119 305 32 294 47 134 187 220 221 219 216 214 217 217 218 221 222 223 224 224 226 229 231 233 237 245 250 255 261 264 268 267 255 256
263 262 247 241 261 200 148 83 75 85 285 253 6 269 112 17 330 238 212 218 219 218 221 226 226 226 226 226 226 226 227 228 233 238 242 248 251 254 261 265 262 267 263 261
309 203 231 232 222 127 184 179 285 211 172 359 349 205 2 333 348 251 185 212 221 225 228 227 226 225 227 228 229 229 230 232 235 239 245 250 252 256 262 265 264 262 267 263
306 116 19 13 314 2 63 325 315 20 341 39 145 25 26 333 319 242 172 211 212 232 239 243 239 236 233 230 230 232 236 235 236 241 247 251 255 256 259 258 258 258 263 269
202 299 349 42 18 320 140 109 57 110 107 237 347 200 265 28 122 122 90 91 60 29 338 304 243 236 236 232 232 233 236 239 238 242 247 251 254 255 257 253 252 255 259 261
157 290 43 342 195 65 323 127 179 54 284 85 303 275 103 144 142 50 39 23 16 28 46 53 59 283 259 234 244 238 238 243 247 249 251 255 257 257 256 252 250 252 256 254
156 289 11 257 28 354 180 173 69 104 337 237 176 176 183 187 180 71 15 346 357 23 52 55 57 36 285 241 245 240 241 243 245 248 253 253 254 256 254 247 238 242 249 253
61 121 302 48 348 296 328 48 22 235 170 54 331 158 65 233 188 158 318 327 18 78 67 60 56 50 66 178 231 229 238 250 250 252 256 254 247 252 252 244 240 236 238 242
171 60 308 173 184 176 46 49 82 89 138 180 254 107 100 110 168 72 140 142 102 87 79 67 60 67 69 97 155 171 109 327 298 265 250 256 251 258 258 250 242 243 242 242
138 129 252 280 215 86 175 114 94 3 273 154 247 314 170 186 303 313 302 157 122 95 83 80 73 74 55 20 348 271 285 328 330 309 272 263 264 260 258 259 256 249 249 250
247 198 203 236 237 226 256 252 213 256 270 244 278 239 258 298 305 308 286 183 133 96 76 60 55 34 1 335 319 307 305 314 310 303 281 272 270 268 256 255 265 265 255 254
38 170 185 251 211 226 262 261 253 257 250 249 262 270 249 317 311 343 269 155 135 95 77 60 37 33 32 2 333 326 323 301 305 291 293 285 276 272 264 275 274 269 259 258
178 154 184 260 208 267 254 248 247 198 203 216 222 267 164 118 88 78 119 119 112 101 95 89 70 48 33 19 338 331 4 320 305 312 308 291 282 284 279 276 272 269 266 262
169 183 202 272 213 258 274 292 243 249 239 229 252 165 157 136 115 89 115 128 118 110 102 84 72 55 45 31 30 4 349 324 307 281 275 300 302 296 294 290 282 275 268 266
208 156 190 239 233 288 271 202 167 197 230 210 189 158 155 147 131 106 131 132 124 105 98 95 86 72 43 25 21 11 9 13 3 322 302 301 291 282 286 291 295 290 283 281
131 175 206 163 222 244 261 208 179 161 251 179 177 172 167 167 176 146 154 141 140 116 92 59 40 12 0 5 14 19 20 14 10 2 351 336 322 310 286 281 283 283 280 277
162 155 201 198 233 255 257 199 158 195 264 177 186 182 173 187 56 150 156 146 139 143 19 354 345 340 18 30 11 352 352 345 344 341 338 335 332 324 301 289 281 276 278 278
193 180 187 169 213 243 162 146 195 203 204 182 184 186 182 184 158 157 165 166 180 205 269 284 302 8 4 342 337 333 324 320 319 317 317 315 313 310 307 303 290 283 279 277
210 212 198 206 211 163 194 245 221 273 231 191 189 189 189 192 195 186 187 194 214 234 252 260 271 313 328 332 330 326 320 315 312 310 306 304 303 303 297 290 287 284 279 279
219 167 202 167 198 225 240 248 249 264 234 213 194 192 200 196 191 190 195 210 231 241 242 249 272 296 320 326 329 327 323 319 319 319 318 317 315 311 302 294 284 279 280 278
235 161 175 228 261 269 244 238 230 227 218 185 178 185 189 188 191 197 205 217 228 233 236 255 284 307 318 320 320 319 320 325 330 331 333 335 333 323 312 305 299 289 276 270
196 181 196 223 200 201 189 198 183 189 187 189 188 186 189 192 196 202 211 221 222 221 241 272 296 311 316 318 323 321 325 328 328 326 323 326 335 338 329 318 309 301 291 280